Regional Weather Roundup
Issued by NWS

Home | Current Version | Previous Version | Text Only | Print | Product List | Glossary Off
Versions: 1 2 3 4 5 6 7 8 9 10 11 12 13 14 15 16 17 18 19 20 21 22 23 24 25 26 27 28 29 30 31 32 33 34 35 36 37 38 39 40 41 42 43 44 45 46 47 48 49 50

000
ASUS45 KBOU 291807
RWRCO

WEATHER ROUNDUP FOR COLORADO
NATIONAL WEATHER SERVICE DENVER/BOULDER CO
1200 PM MDT SAT AUG 29 2015

NOTE: "FAIR" INDICATES FEW OR NO CLOUDS BELOW 12000 FEET WITH NO
SIGNIFICANT WEATHER AND/OR OBSTRUCTIONS TO VISIBILITY.

COZ001>005-013-030-031-291900-
...NORTHWEST COLORADO...

CITY           SKY/WX    TMP DP  RH WIND       PRES   REMARKS
CRAIG          SUNNY     81  41  24 CALM      30.30F
HAYDEN         NOT AVBL
MEEKER         SUNNY     80  42  25 SW6       30.31F
MOUNT WERNER   NOT AVBL
STEAMBOAT SPGS SUNNY     73  44  34 CALM      30.35F
WALDEN         SUNNY     70  37  30 CALM      30.45F
$$

COZ006>008-011-291900-
...WEST CENTRAL VALLEYS...

CITY           SKY/WX    TMP DP  RH WIND       PRES   REMARKS
GRAND JUNCTION SUNNY     80  45  28 SE8       30.22F
MONTROSE       SUNNY     80  48  32 N8        30.30F
EAGLE          MOSUNNY   70  41  35 CALM      30.38F
RIFLE          SUNNY     78  47  33 CALM      30.27F
DELTA          SUNNY     82  45  27 CALM      30.26F
NUCLA          SUNNY     81  41  24 NW5       30.34F
$$

COZ017>023-064>068-291900-
...SOUTHWEST COLORADO...

CITY           SKY/WX    TMP DP  RH WIND       PRES   REMARKS
DURANGO        SUNNY     76  45  33 MISG      30.39F
CORTEZ         SUNNY     85  46  25 S13       30.30F
PAGOSA SPRINGS SUNNY     73  39  28 SW5       30.47F
TELLURIDE      CLOUDY    67  37  32 S5        30.55S
WOLF CREEK PAS SUNNY     52  39  62 SW15      30.79S
$$

COZ009-010-012-014-032>034-037-058>063-291900-
...CENTRAL COLORADO...

CITY           SKY/WX    TMP DP  RH WIND       PRES   REMARKS
ASPEN          SUNNY     75  44  33 VRB5      30.41F
BUENA VISTA    SUNNY     73  40  30 SE7       30.45F
COPPER MTN     PTSUNNY   59  30  33 W10       30.75S
BERTHOUD PASS  FAIR      52  39  62 N8G18     30.79S
COTTONWOOD PAS MOSUNNY   72  37  28 E3        30.60S
GUNNISON       SUNNY     72  43  35 N3        30.46F
KREMMLING      SUNNY     70  37  30 CALM      30.43F
LEADVILLE      SUNNY     65  32  29 VRB5      30.57F
MONARCH PASS   MOSUNNY   55  37  50 SW10      30.85S
SALIDA         SUNNY     76  42  29 SE5       30.49F
SUNLIGHT       MOSUNNY   64  45  48 W3        30.68S
WILKERSON PASS SUNNY     61  37  41 SW6       30.72F
$$

COZ069>075-291900-
...SAN LUIS VALLEY/SANGRE DE CRISTO MOUNTAINS...

CITY           SKY/WX    TMP DP  RH WIND       PRES   REMARKS
ALAMOSA        SUNNY     73  41  31 S3        30.44F
LA VETA PASS   CLOUDY    61  37  41 CALM      30.63F
SAGUACHE       SUNNY     72  43  35 S6        30.48F
$$

COZ035-036-038>040-291900-
...NORTHERN COLORADO FRONT RANGE...

CITY           SKY/WX    TMP DP  RH WIND       PRES   REMARKS
DENVER INTL AP SUNNY     85  39  19 VRB7G18   30.25F
DMNS CITY PARK   N/A     84  44  24 S9        30.24F
AURORA         MOSUNNY   84  44  24 S6        30.27F
FRONT RANGE AP SUNNY     82  37  20 S9G16     30.27F
ERIE MUNI ARPT SUNNY     82  43  25 E3        30.23F
BOULDER MUN AP SUNNY     81  43  26 E3        30.24F
CENTENNIAL     MOSUNNY   83  43  24 SE12G20   30.27F
BROOMFIELD     MOSUNNY   81  45  28 SE6       30.28F
FORT COLLINS   SUNNY     81  48  32 E5        30.24F
LONGMONT       SUNNY     83  45  26 E3        30.25F
$$

COZ041-046-047-076>085-087-088-291900-
...PIKES PEAK/PALMER DIVIDE AND SOUTHERN FOOTHILLS...

CITY           SKY/WX    TMP DP  RH WIND       PRES   REMARKS
COLO. SPRINGS  MOSUNNY   80  43  26 S12       30.35F
A. F. ACADEMY  SUNNY     76  44  31 S12       30.35F
ELLICOTT       SUNNY    N/A N/A N/A S13       30.34F
FALCON         SUNNY     75  43  30 MISG      30.40F
FORT CARSON    SUNNY     80  46  29 S13       30.31F
LIMON          SUNNY     80  44  27 S7        30.29F
MONUMENT HILL  SUNNY     77  37  24 S9G17     30.39F
TRINIDAD       SUNNY     82  44  26 MISG      30.33F
$$

COZ042>045-048>051-090-091-291900-
...NORTHEAST COLORADO...

CITY           SKY/WX    TMP DP  RH WIND       PRES   REMARKS
GREELEY ARPT   SUNNY     81  48  32 E5        30.23F
AKRON          SUNNY     84  42  22 S12       30.23F
BURLINGTON     SUNNY     83  50  31 SW5       30.23F
WRAY           SUNNY     90  44  20 SW3       30.18F
STERLING       SUNNY     81  50  34 S8        30.18F
HOLYOKE        SUNNY     86  50  28 SW8       30.17F
FORT MORGAN    SUNNY     81  47  31 S3        30.23F
$$

COZ086-089-092>099-291900-
...SOUTHEAST COLORADO...

CITY           SKY/WX    TMP DP  RH WIND       PRES   REMARKS
PUEBLO         SUNNY     82  46  28 E3        30.25F
LA JUNTA       SUNNY     84  50  30 SE9       30.24F
LAMAR          SUNNY     83  58  42 NE5       30.20F
SPRINGFIELD    NOT AVBL
$$




USA.gov is the U.S. government's official web portal to all federal, state and local government web resources and services.